sat.trackr.live / text

‹ back to catalog

STARLINK-33681

NORAD 63438 · 2025-069F

PAYLOAD ACTIVE UNKNOWN

§ Identity

Operator
Country
US
Launch date
2025-04-04
Launch site
AFWTR
Launch vehicle
Mass (kg)
RCS (m²)

Purposes: comms

External: N2YO · Heavens-Above · Gunter

§ Orbital elements

Epoch: 2026-05-25T00:01:10.549056Z

Period
93.37 min
Inclination
53.1596°
Eccentricity
0.0001345
Mean motion
15.42191553 rev/d
Perigee alt
438.7 km
Apogee alt
440.6 km
Semi-major
6,817.8 km
B*
9.5997e-4
RAAN
145.5113°
Arg perigee
105.3567°
Mean anomaly
254.7588°
Rev number
6,512

§ Raw data

STARLINK-336811 63438U 25069F   26145.00081654  .00041634  00000+0  95997-3 0  99972 63438  53.1596 145.5113 0001345 105.3567 254.7588 15.42191553 65124

JSON: /api/v1/satellites/63438 · /tle

For live sub-satellite position, see the globe view (requires WebGL).

§ Visibility from observer

Set your observer location to see the next 7 days of passes ≥ 10°. The values pass through the URL so the page stays shareable.

No JS? Fill the form by hand. The geolocation button needs JavaScript.